Find Ekspress AM-22

NORAD ID: 28134 Int'l Des: 2003-060 Owner: KS Country: RU operational
HEOCIRCULAR

Live Position

Loading 3D Globe...

About Ekspress AM-22

Description loading...

Upcoming Passes

Passes for default location (London). Set your location on the main map for personalized predictions.

Altitude History

Loading altitude history...

Two-Line Element Set

1 28134U 03060A 26105.82149299 -.00000225 00000-0 00000+0 0 9994
2 28134 8.1228 64.7786 0008978 143.6520 46.2429 0.99360315 81419
Epoch: Apr 15, 2026 • Age: 21 hours

Current Status

Altitude 36005.1 km
Velocity 3.07 km/s
Sub-Earth Point 4.24°N, 112.3°E
Launch Date Dec 28, 2003
Age 22.2 years
Type other

Technical Details

Classification Payload
Mass 2542.00 kg
Dry Mass 2200.00 kg
Total Mass 2542.00 kg
Length 2.00 m
Diameter 2.00 m
Span 27.00 m
Shape Cyl + 2 Pan
Manufacturer NPOPMR
Bus Type Ekspress
Phase Status In Orbit
Owner/State KS/RU

Most Searched